CALSPHERE 1 1 00900U 64063C 09184.43436826 .00000211 00000-0 22681-3 0 8261 2 00900 90.1609 327.3545 0028150 178.7664 181.3606 13.70470023221692 CALSPHERE 2 1 00902U 64063E 09184.43565948 .00000075 00000-0 10000-3 0 960 2 00902 90.1597 330.3297 0016758 196.0201 164.0415 13.52465317 19566 LCS 1 1 01361U 65034C 09183.89428332 .00000009 00000-0 10000-3 0 1578 2 01361 32.1385 121.7461 0006335 43.3369 316.7631 9.89276758596910 TEMPSAT 1 1 01512U 65065E 09184.36846258 .00000059 00000-0 10000-3 0 1793 2 01512 89.8122 300.0857 0070171 356.6122 3.4524 13.33258559134780 CALSPHERE 4(A) 1 01520U 65065H 09183.72666669 .00000059 00000-0 10000-3 0 3148 2 01520 90.1878 83.5335 0068476 284.7405 74.6147 13.35316398136327 OPS 5712 (P/L 160) 1 02826U 67053A 09184.32571015 .00000348 00000-0 13383-3 0 7618 2 02826 69.9320 131.0491 0005546 138.0681 222.0860 14.38265243169616 OPS 5712 (P/L 153) 1 02874U 67053H 09183.90523163 -.00000025 00000-0 20421-4 0 1546 2 02874 69.9729 58.3253 0009125 301.4256 58.5945 13.95924168142730 SURCAL 150B 1 02909U 67053J 09183.76995678 .00000354 00000-0 11509-3 0 9372 2 02909 69.9560 306.5749 0004900 297.1290 62.9353 14.46479652175227 RIGIDSPHERE 2 (LCS 4) 1 05398U 71067E 09184.13527394 .00000117 00000-0 36446-4 0 5994 2 05398 87.6217 245.0531 0067885 121.3773 239.4105 14.31159620986847 RADCAT 1 06212U 72076A 09183.87239484 .00001774 00000-0 66633-4 0 7758 2 06212 98.5940 194.4101 0002055 322.1009 38.0030 15.28892863125270